Regional Weather Roundup
Issued by NWS

Home | Current Version | Previous Version | Graphics & Text | Print | Product List | Glossary On
Versions: 1 2 3 4 5 6 7 8 9 10 11 12 13 14 15 16 17 18 19 20 21 22 23 24 25 26 27 28 29 30 31 32 33 34 35 36 37 38 39 40 41 42 43 44 45 46 47 48 49 50
879
ASUS45 KBOU 270210
RWRCO

WEATHER ROUNDUP FOR COLORADO
NATIONAL WEATHER SERVICE DENVER/BOULDER CO
800 PM MDT THU APR 26 2018

NOTE: "FAIR" INDICATES FEW OR NO CLOUDS BELOW 12000 FEET WITH NO
SIGNIFICANT WEATHER AND/OR OBSTRUCTIONS TO VISIBILITY.

COZ001>005-013-030-031-270300-
...NORTHWEST COLORADO...

CITY           SKY/WX    TMP DP  RH WIND       PRES   REMARKS
CRAIG          FAIR      52  27  38 W3        30.21S
HAYDEN         FAIR      53  24  32 W5        30.24R
MEEKER         FAIR      55  19  24 N10       30.21S
RANGELY        FAIR      60  24  25 E6        30.16S
RABBIT EARS PA FAIR      36  16  44 NW5       30.39S
STEAMBOAT SPGS FAIR      53  24  31 CALM      30.23S
WALDEN         FAIR      41  10  28 NW6       30.31R
$$

COZ006>008-011-270300-
...WEST CENTRAL VALLEYS...

CITY           SKY/WX    TMP DP  RH WIND       PRES   REMARKS
GRAND JUNCTION FAIR      69  21  16 NE9       30.07F
MONTROSE       FAIR      63  16  16 W5        30.14S
EAGLE          FAIR      57  17  21 E6        30.22R
RIFLE          FAIR      62  18  18 NW6       30.14S
DELTA          FAIR      70  16  13 S3        30.09S
NUCLA          FAIR      64  10  12 NE10      30.15R
$$

COZ017>023-064>068-270300-
...SOUTHWEST COLORADO...

CITY           SKY/WX    TMP DP  RH WIND       PRES   REMARKS
DURANGO        FAIR      68   3   7 N8        30.07R
CORTEZ         FAIR      68   1   7 NW10      30.08R
PAGOSA SPRINGS FAIR      60   0   9 N3        30.16R
TELLURIDE      FAIR      51  13  22 CALM      30.29S
WOLF CREEK PAS FAIR      39   5  24 CALM      30.46R
$$

COZ009-010-012-014-032>034-037-058>063-270300-
...CENTRAL COLORADO...

CITY           SKY/WX    TMP DP  RH WIND       PRES   REMARKS
ASPEN          FAIR      48  23  37 CALM      30.23R
BUENA VISTA    FAIR      51  25  37 SE7G16    30.26R
COPPER MTN     NOT AVBL
BERTHOUD PASS  FAIR      28  18  64 NW15      30.44S WCI  17
COTTONWOOD PAS FAIR      52  16  24 E3        30.33S
GUNNISON       FAIR      56  15  20 NW6       30.22R
GRANBY         FAIR      46  12  25 N6        30.29R
KREMMLING      FAIR      55  12  18 W6        30.26R
LEADVILLE      FAIR      43  15  32 N5        30.33R
MONARCH PASS   FAIR      32  23  69 NE16      30.51S WCI  21
SALIDA         FAIR      52  26  37 SE23G31   30.31R
SUNLIGHT       FAIR      37  12  35 NW5       30.42S
WILKERSON PASS FAIR      32  23  69 SE9       30.43R WCI  24
$$

COZ069>075-270300-
...SAN LUIS VALLEY/SANGRE DE CRISTO MOUNTAINS...

CITY           SKY/WX    TMP DP  RH WIND       PRES   REMARKS
ALAMOSA        FAIR      48  25  40 E21G28    30.19R
DEL NORTE      FAIR      53  22  29 SE10      30.22R
LA VETA PASS   FAIR      32  23  69 NE13G28   30.48R WCI  22
SAGUACHE       NOT AVBL
$$

COZ035-036-038>040-270300-
...NORTHERN COLORADO FRONT RANGE...

CITY           SKY/WX    TMP DP  RH WIND       PRES   REMARKS
DENVER INTL AP FAIR      51  26  37 SE5       30.24S
AURORA         CLEAR     51  22  33 E3        30.25S
FRONT RANGE AP CLEAR     54  27  35 NE3       30.25S
ERIE MUNI ARPT FAIR      54  25  31 S3        30.28R
BOULDER MUN AP FAIR      54  27  35 CALM      30.23R
CENTENNIAL     FAIR      49  26  41 E3        30.25S
BROOMFIELD     CLEAR     55  25  30 CALM      30.25R
FORT COLLINS   FAIR      53  28  38 SE9       30.23R
LONGMONT       FAIR      55  26  32 S3        30.25R
$$

COZ041-046-047-076>085-087-088-270300-
...PIKES PEAK/PALMER DIVIDE AND SOUTHERN FOOTHILLS...

CITY           SKY/WX    TMP DP  RH WIND       PRES   REMARKS
COLO. SPRINGS  FAIR      50  25  37 NE9       30.28R
A. F. ACADEMY  FAIR      46  24  41 NE3       30.27R
SCHRIEVER AFB  NOT AVBL
CHEYENNE MTN   FAIR      46  25  44 NW7       30.24R
ELLICOTT         N/A    N/A N/A N/A NE6       30.27R
FALCON         FAIR      44  21  39 N6        30.30R
FORT CARSON    FAIR      49  25  38 E6        30.25R
LIMON          FAIR      42  26  53 N3        30.25R
MONUMENT HILL  FAIR      41  23  48 N8        30.30S
CANON CITY     FAIR      54  32  43 SE10      30.24S
WALSENBURG     NOT AVBL
TRINIDAD       FAIR      49  22  34 NE8       30.27R
$$

COZ042>045-048>051-090-091-270300-
...NORTHEAST COLORADO...

CITY           SKY/WX    TMP DP  RH WIND       PRES   REMARKS
GREELEY ARPT   FAIR      52  26  36 E6        30.23R
AKRON          FAIR      44  27  51 N7        30.21S
BURLINGTON     FAIR      49  29  46 N8        30.21R
WRAY           FAIR      52  28  40 CALM      30.20R
YUMA           FAIR      48  21  34 N6        30.20S
STERLING       NOT AVBL
HOLYOKE        FAIR      54  32  43 NW3       30.19S
FORT MORGAN    FAIR      53  22  29 NE3       30.23R HAZE
$$

COZ086-089-092>099-270300-
...SOUTHEAST COLORADO...

CITY           SKY/WX    TMP DP  RH WIND       PRES   REMARKS
PUEBLO         FAIR      56  23  27 E6        30.23R
LA JUNTA       FAIR      53  27  36 NE6       30.23R
LAMAR          FAIR      52  28  39 NE8       30.19R
SPRINGFIELD      N/A     48  25  40 N13       30.21R
$$




USA.gov is the U.S. government's official web portal to all federal, state and local government web resources and services.